Miscellaneous Local Product
Issued by NWS Hastings, NE

Home | Current Version | Previous Version | Text Only | Print | Product List | Glossary Off
Versions: 1 2 3 4 5 6 7 8 9 10 11 12 13 14 15 16 17 18 19 20 21 22 23 24 25 26 27 28 29 30 31 32 33 34 35 36 37 38 39 40 41 42 43 44 45 46 47 48 49 50

000
AXUS43 KGID 312302
MISGRI

GID CWA HOURLY WEATHER ROUNDUP
NATIONAL WEATHER SERVICE HASTINGS NE
600 PM CDT THU JUL 31 2014

NOTE: "FAIR" INDICATES FEW OR NO CLOUDS BELOW 12,000 FEET WITH NO
SIGNIFICANT WEATHER AND/OR OBSTRUCTIONS TO VISIBILITY.

...SOUTH CENTRAL NEBRASKA...

CITY           SKY/WX    TMP DP  RH WIND       PRES   REMARKS
GRAND ISLAND   SUNNY     89  60  37 SW8       30.00F
HASTINGS       MOSUNNY   84  57  39 S5        30.01F
KEARNEY        MOSUNNY   90  54  29 W12       30.01F
ORD            SUNNY     87  57  35 N14       30.01S
YORK           PTSUNNY   73  64  73 E15G25    30.03R THUNDER
AURORA         MOSUNNY   85  61  43 SW8       30.01R
LEXINGTON      SUNNY     88  52  29 NW9       30.04S
HOLDREGE       SUNNY     88  54  31 CALM      30.02F
HEBRON         MOSUNNY   85  49  27 SW5       30.01F

...NEBRASKA PANHANDLE...

CITY           SKY/WX    TMP DP  RH WIND       PRES   REMARKS
CHADRON        SUNNY     88  45  22 NE8       30.11F
ALLIANCE       SUNNY     83  41  22 NE9       30.15F
SCOTTSBLUFF    SUNNY     86  43  22 VRB5      30.15F
SIDNEY         PTSUNNY   88  38  17 N9        30.17F

...WESTERN AND NORTH CENTRAL NEBRASKA...

CITY           SKY/WX    TMP DP  RH WIND       PRES   REMARKS
VALENTINE      SUNNY     88  50  27 NW8       30.08F
AINSWORTH      MOSUNNY   82  49  32 N6G17     30.08S
ONEILL         PTSUNNY   82  64  54 NE16      30.06R
BROKEN BOW     SUNNY     85  57  38 N16G23    30.04F
IMPERIAL       SUNNY     85  50  29 W7        30.11F
NORTH PLATTE   SUNNY     87  48  25 NE13      30.06F
MCCOOK         MOSUNNY   89  48  24 NW6       30.06F

...EASTERN NEBRASKA...

CITY           SKY/WX    TMP DP  RH WIND       PRES   REMARKS
NORFOLK        PTSUNNY   78  61  55 E8        30.02R
SO SIOUX CITY  PTSUNNY   73  62  68 E9        30.04F
TEKAMAH        SUNNY     81  60  48 E12       30.03S
ALBION         MOSUNNY   82  65  56 SE16      30.01R
OMAHA EPPLEY   PTSUNNY   83  57  41 E14       30.02F
OFFUTT AFB     MOSUNNY   84  58  41 SE9       30.02S
MILLARD        CLOUDY    85  58  39 SE6       30.01F
LINCOLN        CLOUDY    83  57  41 SE9       30.02S
NEBRASKA CITY  PTSUNNY   80  56  43 SE5       30.03S
BEATRICE       MOSUNNY   86  57  36 S6        30.01F
FALLS CITY     MOSUNNY   83  55  38 S7        30.03F

...NORTHERN KANSAS...

CITY           SKY/WX    TMP DP  RH WIND       PRES   REMARKS
GOODLAND       SUNNY     84  43  23 N5        30.15F
HILL CITY      SUNNY     91  45  20 VRB3      30.04F
NORTON         CLEAR     90  37  15 SW5       30.04F
PHILLIPSBURG   MOSUNNY   90  45  20 CALM      30.02F
SMITH CENTER   MOSUNNY   90  52  27 S7        30.01F
HAYS           SUNNY     86  55  35 S8        30.05F
RUSSELL        SUNNY     85  57  38 S7        30.04F
CONCORDIA      SUNNY     86  56  35 SE8G17    30.02F
SALINA         SUNNY     87  48  25 CALM      30.04F
TOPEKA         SUNNY     86  54  33 NE7       30.04S



USA.gov is the U.S. government's official web portal to all federal, state and local government web resources and services.